Regional Weather Roundup
Issued by NWS Cleveland, OH

Home | Current Version | Previous Version | Text Only | Print | Product List | Glossary On
Versions: 1 2 3 4 5 6 7 8 9 10 11 12 13 14 15 16 17 18 19 20 21 22 23 24 25 26 27 28 29 30 31 32 33 34 35 36 37 38 39 40 41 42 43 44 45 46 47 48 49 50
000
ASUS41 KCLE 301412
RWRCLE
OHIO REGIONAL WEATHER ROUNDUP
NATIONAL WEATHER SERVICE WILMINGTON, OH
1000 AM EDT FRI SEP 30 2016

NOTE: "FAIR" INDICATES FEW OR NO CLOUDS BELOW 12,000 FEET WITH NO
SIGNIFICANT WEATHER AND/OR OBSTRUCTIONS TO VISIBILITY.

OHZ001>008-015>018-024>027-034-035-043-044-301500-
   NORTHWEST OHIO

CITY           SKY/WX    TMP DP  RH WIND       PRES   REMARKS
DEFIANCE       CLOUDY    62  58  86 NE5       30.11R
FINDLAY        CLOUDY    62  57  83 E7        30.09R
TOLEDO EXPRESS PTSUNNY   63  60  90 E12       30.12R
TOLEDO EXEC    PTSUNNY   64  60  87 E10       30.13R
LIMA           CLOUDY    61  60  97 E8        30.07F
$$

OHZ009>014-019>023-028>033-038-089-301500-
   NORTHEAST OHIO

CITY           SKY/WX    TMP DP  RH WIND       PRES   REMARKS
CLE-HOPKINS    PTSUNNY   61  55  81 E10       30.14R
CLE-LAKEFRONT  PTSUNNY   63  55  75 E10       30.11S
CUY CO. ARPT   NOT AVBL
LORAIN-ELYRIA  NOT AVBL
ASHTABULA      CLOUDY    59  56  89 E14       30.20S
AKRON-CANTON   PTSUNNY   58  54  86 E17G29    30.10F
WOOSTER        CLOUDY    59  56  89 SE9       30.12R
MANSFIELD      CLOUDY    60  57  89 E18       30.10R
YOUNGSTOWN     CLOUDY    57  54  89 E12       30.17S
$$

OHZ042-051>053-060>062-070>072-077>081-301500-
  SOUTHWEST OHIO

CITY           SKY/WX    TMP DP  RH WIND       PRES   REMARKS
CINC-COVINGTON NOT AVBL
CINC-LUNKEN    CLOUDY    59  59 100 NE6       30.04R
HAMILTON       RAIN      60  57  89 CALM      30.05R FOG
DAYTON         LGT RAIN  61  60  97 E10       30.04S
WRIGHT-PAT AFB DRIZZLE   61  61 100 E5        30.03S
DAYTON GENERAL CLOUDY    59  57  93 CALM      30.03R
WILMINGTON     CLOUDY    58  57  97 N3        30.03S
$$

OHZ036-037-039>041-045>050-054>059-063>069-073>076-082>088-301500-
  CENTRAL AND SOUTHEAST OHIO

CITY           SKY/WX    TMP DP  RH WIND       PRES   REMARKS
COLUMBUS       CLOUDY    61  60  97 E6        30.06R
OSU AIRPORT    CLOUDY    61  60  97 E9        30.06R
BOLTON FIELD   LGT RAIN  61  61 100 E8        30.06R
RICKENBACK AFB CLOUDY    59  60 100 NE12      30.03F
NEWARK         CLOUDY    62  58  86 VRB7      30.05F
MARION         CLOUDY    62  56  80 SE12      30.09R
LANCASTER      CLOUDY    62  60  93 VRB3      30.05S
ZANESVILLE     PTSUNNY   62  57  83 E10       30.06S
NEW PHILLY     LGT RAIN  61  57  87 SE13G20   30.11R
$$




USA.gov is the U.S. government's official web portal to all federal, state and local government web resources and services.